This is the latest recevied weather packets stored in our database for station/object KC5TIL-3. If no packets are shown the sender has not sent any weather packets the latest 10 day(s).
| Time | Temp. | Humidity | Pressure | Rain* | Wind** | Luminosity | Snow |
|---|---|---|---|---|---|---|---|
| 1787664348 | 28.33° C | 24% | 1015.8 hPa | 0 mm | 1.79 m/s, 104° | - | - |
| 1787664050 | 27.78° C | 25% | 1015.8 hPa | 0 mm | 0 m/s | - | - |
| 1787663752 | 27.78° C | 26% | 1014.8 hPa | 0 mm | 1.79 m/s, 50° | - | - |
| 1787663450 | 27.78° C | 26% | 1014.8 hPa | 0 mm | 1.34 m/s, 40° | - | - |
| 1787663152 | 27.22° C | 26% | 1014.8 hPa | 0 mm | 1.79 m/s, 351° | - | - |
| 1787662854 | 27.78° C | 25% | 1013.8 hPa | 0 mm | 1.34 m/s, 96° | - | - |
| 1787662553 | 27.78° C | 25% | 1013.8 hPa | 0 mm | 0 m/s | - | - |
| 1787662254 | 27.78° C | 23% | 1013.8 hPa | 0 mm | 0 m/s | - | - |
| 1787661956 | 27.78° C | 23% | 1012.8 hPa | 0 mm | 0 m/s | - | - |
| 1787661655 | 27.78° C | 23% | 1012.8 hPa | 0 mm | 0 m/s | - | - |
| 1787661357 | 27.78° C | 23% | 1012.8 hPa | 0 mm | 1.34 m/s, 161° | - | - |
| 1787661058 | 27.78° C | 22% | 1012.8 hPa | 0 mm | 0 m/s | - | - |
| 1787660757 | 27.78° C | 22% | 1012.8 hPa | 0 mm | 1.34 m/s, 201° | - | - |
| 1787660459 | 27.78° C | 22% | 1012.8 hPa | 0 mm | 0 m/s | - | - |
| 1787660161 | 27.78° C | 22% | 1012.8 hPa | 0 mm | 2.24 m/s, 209° | - | - |
| 1787659854 | 27.78° C | 22% | 1012.8 hPa | 0 mm | 1.79 m/s, 196° | - | - |
| 1787659556 | 27.78° C | 22% | 1012.8 hPa | 0 mm | 2.24 m/s, 193° | - | - |
| 1787659258 | 27.78° C | 22% | 1011.8 hPa | 0 mm | 2.24 m/s, 213° | - | - |
| 1787658957 | 27.78° C | 22% | 1011.8 hPa | 0 mm | 2.24 m/s, 217° | - | - |
| 1787658654 | 27.78° C | 21% | 1011.8 hPa | 0 mm | 2.68 m/s, 221° | - | - |
| 1787658351 | 27.78° C | 21% | 1011.8 hPa | 0 mm | 3.13 m/s, 221° | - | - |
| 1787658049 | 27.78° C | 21% | 1011.8 hPa | 0 mm | 2.68 m/s, 211° | - | - |
| 1787657751 | 28.33° C | 21% | 1011.8 hPa | 0 mm | 2.24 m/s, 196° | - | - |
| 1787657448 | 28.33° C | 21% | 1011.8 hPa | 0 mm | 2.24 m/s, 242° | - | - |
| 1787657147 | 28.33° C | 21% | 1011.8 hPa | 0 mm | 2.24 m/s, 166° | - | - |
* Rain latest hour (hover to see other rain measurements)
** Current wind speed in m/s (hover to see current wind gust speed)